Year,Month,Day,Hour,Minute,Value (Times are PST for temperature in C)
2015,06,27,00,00,17.80
2015,06,27,00,01,17.70
2015,06,27,00,02,17.70
2015,06,27,00,03,17.70
2015,06,27,00,04,17.70
2015,06,27,00,05,17.60
2015,06,27,00,06,17.60
2015,06,27,00,07,17.60
2015,06,27,00,08,17.60
2015,06,27,00,09,17.60
2015,06,27,00,10,17.50
2015,06,27,00,11,17.50
2015,06,27,00,12,17.50
2015,06,27,00,13,17.50
2015,06,27,00,14,17.40
2015,06,27,00,15,17.40
2015,06,27,00,16,17.40
2015,06,27,00,17,17.40
2015,06,27,00,18,17.40
2015,06,27,00,19,17.40
2015,06,27,00,20,17.40
2015,06,27,00,21,17.40
2015,06,27,00,22,17.40
2015,06,27,00,23,17.40
2015,06,27,00,24,17.40
2015,06,27,00,25,17.40
2015,06,27,00,26,17.40
2015,06,27,00,27,17.40
2015,06,27,00,28,17.40
2015,06,27,00,29,17.40
2015,06,27,00,30,17.40
2015,06,27,00,31,17.40
2015,06,27,00,32,17.40
2015,06,27,00,33,17.40
2015,06,27,00,34,17.40
2015,06,27,00,35,17.40
2015,06,27,00,36,17.40
2015,06,27,00,37,17.40
2015,06,27,00,38,17.40
2015,06,27,00,39,17.40
2015,06,27,00,40,17.40
2015,06,27,00,41,17.40
2015,06,27,00,42,17.40
2015,06,27,00,43,17.40
2015,06,27,00,44,17.40
2015,06,27,00,45,17.30
2015,06,27,00,46,17.30
2015,06,27,00,47,17.40
2015,06,27,00,48,17.40
2015,06,27,00,49,17.40
2015,06,27,00,50,17.40
2015,06,27,00,51,17.40
2015,06,27,00,52,17.40
2015,06,27,00,53,17.40
2015,06,27,00,54,17.40
2015,06,27,00,55,17.40
2015,06,27,00,56,17.40
2015,06,27,00,57,17.50
2015,06,27,00,58,17.50
2015,06,27,00,59,17.50
2015,06,27,01,00,17.50
2015,06,27,01,01,17.50
2015,06,27,01,02,17.40
2015,06,27,01,03,17.40
2015,06,27,01,04,17.40
2015,06,27,01,05,17.40
2015,06,27,01,06,17.40
2015,06,27,01,07,17.40
2015,06,27,01,08,17.40
2015,06,27,01,09,17.40
2015,06,27,01,10,17.40
2015,06,27,01,11,17.40
2015,06,27,01,12,17.40
2015,06,27,01,13,17.30
2015,06,27,01,14,17.30
2015,06,27,01,15,17.30
2015,06,27,01,16,17.30
2015,06,27,01,17,17.30
2015,06,27,01,18,17.30
2015,06,27,01,19,17.20
2015,06,27,01,20,17.20
2015,06,27,01,21,17.20
2015,06,27,01,22,17.20
2015,06,27,01,23,17.20
2015,06,27,01,24,17.20
2015,06,27,01,25,17.20
2015,06,27,01,26,17.10
2015,06,27,01,27,17.10
2015,06,27,01,28,17.10
2015,06,27,01,29,17.10
2015,06,27,01,30,17.10
2015,06,27,01,31,17.00
2015,06,27,01,32,17.00
2015,06,27,01,33,17.00
2015,06,27,01,34,16.90
2015,06,27,01,35,16.90
2015,06,27,01,36,16.90
2015,06,27,01,37,16.90
2015,06,27,01,38,16.90
2015,06,27,01,39,16.80
2015,06,27,01,40,16.80
2015,06,27,01,41,16.80
2015,06,27,01,42,16.80
2015,06,27,01,43,16.80
2015,06,27,01,44,16.70
2015,06,27,01,45,16.70
2015,06,27,01,46,16.70
2015,06,27,01,47,16.60
2015,06,27,01,48,16.60
2015,06,27,01,49,16.60
2015,06,27,01,50,16.50
2015,06,27,01,51,16.50
2015,06,27,01,52,16.40
2015,06,27,01,53,16.40
2015,06,27,01,54,16.40
2015,06,27,01,55,16.30
2015,06,27,01,56,16.30
2015,06,27,01,57,16.20
2015,06,27,01,58,16.20
2015,06,27,01,59,16.20
2015,06,27,02,00,16.10
2015,06,27,02,01,16.10
2015,06,27,02,02,16.10
2015,06,27,02,03,16.00
2015,06,27,02,04,16.00
2015,06,27,02,05,15.90
2015,06,27,02,06,15.90
2015,06,27,02,07,15.90
2015,06,27,02,08,15.80
2015,06,27,02,09,15.80
2015,06,27,02,10,15.80
2015,06,27,02,11,15.70
2015,06,27,02,12,15.70
2015,06,27,02,13,15.70
2015,06,27,02,14,15.70
2015,06,27,02,15,15.60
2015,06,27,02,16,15.60
2015,06,27,02,17,15.60
2015,06,27,02,18,15.50
2015,06,27,02,19,15.50
2015,06,27,02,20,15.50
2015,06,27,02,21,15.50
2015,06,27,02,22,15.40
2015,06,27,02,23,15.40
2015,06,27,02,24,15.40
2015,06,27,02,25,15.40
2015,06,27,02,26,15.30
2015,06,27,02,27,15.30
2015,06,27,02,28,15.30
2015,06,27,02,29,15.30
2015,06,27,02,30,15.30
2015,06,27,02,31,15.20
2015,06,27,02,32,15.20
2015,06,27,02,33,15.20
2015,06,27,02,34,15.20
2015,06,27,02,35,15.20
2015,06,27,02,36,15.20
2015,06,27,02,37,15.10
2015,06,27,02,38,15.10
2015,06,27,02,39,15.10
2015,06,27,02,40,15.10
2015,06,27,02,41,15.10
2015,06,27,02,42,15.00
2015,06,27,02,43,15.00
2015,06,27,02,44,15.00
2015,06,27,02,45,14.90
2015,06,27,02,46,14.90
2015,06,27,02,47,14.90
2015,06,27,02,48,14.90
2015,06,27,02,49,14.90
2015,06,27,02,50,14.80
2015,06,27,02,51,14.80
2015,06,27,02,52,14.80
2015,06,27,02,53,14.80
2015,06,27,02,54,14.80
2015,06,27,02,55,14.80
2015,06,27,02,56,14.80
2015,06,27,02,57,14.70
2015,06,27,02,58,14.70
2015,06,27,02,59,14.70
2015,06,27,03,00,14.70
2015,06,27,03,01,14.70
2015,06,27,03,02,14.70
2015,06,27,03,03,14.70
2015,06,27,03,04,14.60
2015,06,27,03,05,14.60
2015,06,27,03,06,14.60
2015,06,27,03,07,14.60
2015,06,27,03,08,14.60
2015,06,27,03,09,14.60
2015,06,27,03,10,14.50
2015,06,27,03,11,14.50
2015,06,27,03,12,14.50
2015,06,27,03,13,14.50
2015,06,27,03,14,14.50
2015,06,27,03,15,14.50
2015,06,27,03,16,14.40
2015,06,27,03,17,14.40
2015,06,27,03,18,14.40
2015,06,27,03,19,14.40
2015,06,27,03,20,14.40
2015,06,27,03,21,14.40
2015,06,27,03,22,14.40
2015,06,27,03,23,14.40
2015,06,27,03,24,14.40
2015,06,27,03,25,14.30
2015,06,27,03,26,14.30
2015,06,27,03,27,14.30
2015,06,27,03,28,14.30
2015,06,27,03,29,14.30
2015,06,27,03,30,14.30
2015,06,27,03,31,14.30
2015,06,27,03,32,14.30
2015,06,27,03,33,14.30
2015,06,27,03,34,14.30
2015,06,27,03,35,14.20
2015,06,27,03,36,14.20
2015,06,27,03,37,14.20
2015,06,27,03,38,14.20
2015,06,27,03,39,14.20
2015,06,27,03,40,14.20
2015,06,27,03,41,14.20
2015,06,27,03,42,14.10
2015,06,27,03,43,14.10
2015,06,27,03,44,14.10
2015,06,27,03,45,14.10
2015,06,27,03,46,14.10
2015,06,27,03,47,14.10
2015,06,27,03,48,14.10
2015,06,27,03,49,14.10
2015,06,27,03,50,14.10
2015,06,27,03,51,14.10
2015,06,27,03,52,14.10
2015,06,27,03,53,14.10
2015,06,27,03,54,14.10
2015,06,27,03,55,14.10
2015,06,27,03,56,14.10
2015,06,27,03,57,14.00
2015,06,27,03,58,14.00
2015,06,27,03,59,14.00
2015,06,27,04,00,14.00
2015,06,27,04,01,14.00
2015,06,27,04,02,14.00
2015,06,27,04,03,14.00
2015,06,27,04,04,13.90
2015,06,27,04,05,13.90
2015,06,27,04,06,13.90
2015,06,27,04,07,13.90
2015,06,27,04,08,13.90
2015,06,27,04,09,13.90
2015,06,27,04,10,13.90
2015,06,27,04,11,13.90
2015,06,27,04,12,13.90
2015,06,27,04,13,13.90
2015,06,27,04,14,13.90
2015,06,27,04,15,13.90
2015,06,27,04,16,13.90
2015,06,27,04,17,13.90
2015,06,27,04,18,13.90
2015,06,27,04,19,13.90
2015,06,27,04,20,13.90
2015,06,27,04,21,13.90
2015,06,27,04,22,13.90
2015,06,27,04,23,13.90
2015,06,27,04,24,13.90
2015,06,27,04,25,13.90
2015,06,27,04,26,13.90
2015,06,27,04,27,13.90
2015,06,27,04,28,13.90
2015,06,27,04,29,13.90
2015,06,27,04,30,13.90
2015,06,27,04,31,13.90
2015,06,27,04,32,13.80
2015,06,27,04,33,13.80
2015,06,27,04,34,13.80
2015,06,27,04,35,13.80
2015,06,27,04,36,13.80
2015,06,27,04,37,13.80
2015,06,27,04,38,13.80
2015,06,27,04,39,13.70
2015,06,27,04,40,13.70
2015,06,27,04,41,13.70
2015,06,27,04,42,13.70
2015,06,27,04,43,13.70
2015,06,27,04,44,13.70
2015,06,27,04,45,13.70
2015,06,27,04,46,13.70
2015,06,27,04,47,13.70
2015,06,27,04,48,13.60
2015,06,27,04,49,13.60
2015,06,27,04,50,13.60
2015,06,27,04,51,13.60
2015,06,27,04,52,13.60
2015,06,27,04,53,13.60
2015,06,27,04,54,13.60
2015,06,27,04,55,13.60
2015,06,27,04,56,13.60
2015,06,27,04,57,13.50
2015,06,27,04,58,13.50
2015,06,27,04,59,13.50
2015,06,27,05,00,13.50
2015,06,27,05,01,13.50
2015,06,27,05,02,13.40
2015,06,27,05,03,13.40
2015,06,27,05,04,13.40
2015,06,27,05,05,13.40
2015,06,27,05,06,13.40
2015,06,27,05,07,13.40
2015,06,27,05,08,13.40
2015,06,27,05,09,13.40
2015,06,27,05,10,13.30
2015,06,27,05,11,13.30
2015,06,27,05,12,13.30
2015,06,27,05,13,13.30
2015,06,27,05,14,13.30
2015,06,27,05,15,13.30
2015,06,27,05,16,13.30
2015,06,27,05,17,13.30
2015,06,27,05,18,13.30
2015,06,27,05,19,13.30
2015,06,27,05,20,13.20
2015,06,27,05,21,13.20
2015,06,27,05,22,13.20
2015,06,27,05,23,13.20
2015,06,27,05,24,13.20
2015,06,27,05,25,13.20
2015,06,27,05,26,13.20
2015,06,27,05,27,13.20
2015,06,27,05,28,13.20
2015,06,27,05,29,13.20
2015,06,27,05,30,13.20
2015,06,27,05,31,13.10
2015,06,27,05,32,13.10
2015,06,27,05,33,13.10
2015,06,27,05,34,13.10
2015,06,27,05,35,13.10
2015,06,27,05,36,13.10
2015,06,27,05,37,13.10
2015,06,27,05,38,13.10
2015,06,27,05,39,13.10
2015,06,27,05,40,13.10
2015,06,27,05,41,13.20
2015,06,27,05,42,13.20
2015,06,27,05,43,13.20
2015,06,27,05,44,13.20
2015,06,27,05,45,13.20
2015,06,27,05,46,13.20
2015,06,27,05,47,13.20
2015,06,27,05,48,13.20
2015,06,27,05,49,13.20
2015,06,27,05,50,13.20
2015,06,27,05,51,13.20
2015,06,27,05,52,13.20
2015,06,27,05,53,13.20
2015,06,27,05,54,13.20
2015,06,27,05,55,13.20
2015,06,27,05,56,13.20
2015,06,27,05,57,13.20
2015,06,27,05,58,13.20
2015,06,27,05,59,13.20
2015,06,27,06,00,13.20
2015,06,27,06,01,13.20
2015,06,27,06,02,13.20
2015,06,27,06,03,13.20
2015,06,27,06,04,13.20
2015,06,27,06,05,13.20
2015,06,27,06,06,13.30
2015,06,27,06,07,13.30
2015,06,27,06,08,13.30
2015,06,27,06,09,13.30
2015,06,27,06,10,13.30
2015,06,27,06,11,13.30
2015,06,27,06,12,13.30
2015,06,27,06,13,13.30
2015,06,27,06,14,13.30
2015,06,27,06,15,13.30
2015,06,27,06,16,13.30
2015,06,27,06,17,13.30
2015,06,27,06,18,13.30
2015,06,27,06,19,13.30
2015,06,27,06,20,13.40
2015,06,27,06,21,13.40
2015,06,27,06,22,13.40
2015,06,27,06,23,13.40
2015,06,27,06,24,13.40
2015,06,27,06,25,13.40
2015,06,27,06,26,13.50
2015,06,27,06,27,13.50
2015,06,27,06,28,13.50
2015,06,27,06,29,13.50
2015,06,27,06,30,13.60
2015,06,27,06,31,13.60
2015,06,27,06,32,13.60
2015,06,27,06,33,13.70
2015,06,27,06,34,13.70
2015,06,27,06,35,13.70
2015,06,27,06,36,13.80
2015,06,27,06,37,13.80
2015,06,27,06,38,13.80
2015,06,27,06,39,13.90
2015,06,27,06,40,13.90
2015,06,27,06,41,13.90
2015,06,27,06,42,13.90
2015,06,27,06,43,14.00
2015,06,27,06,44,14.00
2015,06,27,06,45,14.10
2015,06,27,06,46,14.10
2015,06,27,06,47,14.10
2015,06,27,06,48,14.20
2015,06,27,06,49,14.20
2015,06,27,06,50,14.20
2015,06,27,06,51,14.20
2015,06,27,06,52,14.30
2015,06,27,06,53,14.30
2015,06,27,06,54,14.30
2015,06,27,06,55,14.30
2015,06,27,06,56,14.40
2015,06,27,06,57,14.40
2015,06,27,06,58,14.50
2015,06,27,06,59,14.50
2015,06,27,07,00,14.60
2015,06,27,07,01,14.60
2015,06,27,07,02,14.60
2015,06,27,07,03,14.70
2015,06,27,07,04,14.70
2015,06,27,07,05,14.70
2015,06,27,07,06,14.80
2015,06,27,07,07,14.90
2015,06,27,07,08,14.90
2015,06,27,07,09,15.00
2015,06,27,07,10,15.10
2015,06,27,07,11,15.20
2015,06,27,07,12,15.30
2015,06,27,07,13,15.40
2015,06,27,07,14,15.50
2015,06,27,07,15,15.60
2015,06,27,07,16,15.80
2015,06,27,07,17,15.90
2015,06,27,07,18,16.00
2015,06,27,07,19,16.10
2015,06,27,07,20,16.20
2015,06,27,07,21,16.30
2015,06,27,07,22,16.40
2015,06,27,07,23,16.50
2015,06,27,07,24,16.60
2015,06,27,07,25,16.70
2015,06,27,07,26,16.80
2015,06,27,07,27,16.90
2015,06,27,07,28,17.00
2015,06,27,07,29,17.10
2015,06,27,07,30,17.20
2015,06,27,07,31,17.30
2015,06,27,07,32,17.40
2015,06,27,07,33,17.50
2015,06,27,07,34,17.60
2015,06,27,07,35,17.70
2015,06,27,07,36,17.80
2015,06,27,07,37,17.90
2015,06,27,07,38,18.00
2015,06,27,07,39,18.10
2015,06,27,07,40,18.10
2015,06,27,07,41,18.20
2015,06,27,07,42,18.30
2015,06,27,07,43,18.30
2015,06,27,07,44,18.40
2015,06,27,07,45,18.50
2015,06,27,07,46,18.60
2015,06,27,07,47,18.70
2015,06,27,07,48,18.80
2015,06,27,07,49,18.90
2015,06,27,07,50,19.00
2015,06,27,07,51,19.10
2015,06,27,07,52,19.20
2015,06,27,07,53,19.30
2015,06,27,07,54,19.40
2015,06,27,07,55,19.50
2015,06,27,07,56,19.60
2015,06,27,07,57,19.70
2015,06,27,07,58,19.80
2015,06,27,07,59,19.80
2015,06,27,08,00,19.90
2015,06,27,08,01,20.00
2015,06,27,08,02,20.10
2015,06,27,08,03,20.10
2015,06,27,08,04,20.20
2015,06,27,08,05,20.30
2015,06,27,08,06,20.30
2015,06,27,08,07,20.30
2015,06,27,08,08,20.30
2015,06,27,08,09,20.30
2015,06,27,08,10,20.20
2015,06,27,08,11,20.20
2015,06,27,08,12,20.10
2015,06,27,08,13,20.10
2015,06,27,08,14,20.00
2015,06,27,08,15,19.90
2015,06,27,08,16,19.90
2015,06,27,08,17,19.80
2015,06,27,08,18,19.80
2015,06,27,08,19,19.70
2015,06,27,08,20,19.60
2015,06,27,08,21,19.50
2015,06,27,08,22,19.40
2015,06,27,08,23,19.30
2015,06,27,08,24,19.20
2015,06,27,08,25,19.10
2015,06,27,08,26,19.00
2015,06,27,08,27,18.90
2015,06,27,08,28,18.90
2015,06,27,08,29,18.80
2015,06,27,08,30,18.80
2015,06,27,08,31,18.80
2015,06,27,08,32,18.80
2015,06,27,08,33,18.80
2015,06,27,08,34,18.80
2015,06,27,08,35,18.80
2015,06,27,08,36,18.90
2015,06,27,08,37,18.90
2015,06,27,08,38,18.90
2015,06,27,08,39,18.90
2015,06,27,08,40,19.00
2015,06,27,08,41,19.00
2015,06,27,08,42,19.10
2015,06,27,08,43,19.10
2015,06,27,08,44,19.20
2015,06,27,08,45,19.30
2015,06,27,08,46,19.30
2015,06,27,08,47,19.40
2015,06,27,08,48,19.40
2015,06,27,08,49,19.50
2015,06,27,08,50,19.60
2015,06,27,08,51,19.70
2015,06,27,08,52,19.70
2015,06,27,08,53,19.80
2015,06,27,08,54,19.90
2015,06,27,08,55,20.00
2015,06,27,08,56,20.00
2015,06,27,08,57,20.10
2015,06,27,08,58,20.20
2015,06,27,08,59,20.20
2015,06,27,09,00,20.30
2015,06,27,09,01,20.30
2015,06,27,09,02,20.40
2015,06,27,09,03,20.40
2015,06,27,09,04,20.50
2015,06,27,09,05,20.60
2015,06,27,09,06,20.60
2015,06,27,09,07,20.70
2015,06,27,09,08,20.70
2015,06,27,09,09,20.80
2015,06,27,09,10,20.80
2015,06,27,09,11,20.80
2015,06,27,09,12,20.90
2015,06,27,09,13,20.90
2015,06,27,09,14,20.90
2015,06,27,09,15,20.90
2015,06,27,09,16,21.00
2015,06,27,09,17,21.00
2015,06,27,09,18,21.00
2015,06,27,09,19,21.00
2015,06,27,09,20,21.00
2015,06,27,09,21,20.90
2015,06,27,09,22,20.90
2015,06,27,09,23,20.90
2015,06,27,09,24,20.80
2015,06,27,09,25,20.80
2015,06,27,09,26,20.80
2015,06,27,09,27,20.80
2015,06,27,09,28,20.80
2015,06,27,09,29,20.80
2015,06,27,09,30,20.80
2015,06,27,09,31,20.80
2015,06,27,09,32,20.80
2015,06,27,09,33,20.80
2015,06,27,09,34,20.80
2015,06,27,09,35,20.80
2015,06,27,09,36,20.80
2015,06,27,09,37,20.80
2015,06,27,09,38,20.80
2015,06,27,09,39,20.80
2015,06,27,09,40,20.70
2015,06,27,09,41,20.60
2015,06,27,09,42,20.50
2015,06,27,09,43,20.40
2015,06,27,09,44,20.20
2015,06,27,09,45,20.00
2015,06,27,09,46,19.80
2015,06,27,09,47,19.50
2015,06,27,09,48,19.20
2015,06,27,09,49,18.90
2015,06,27,09,50,18.60
2015,06,27,09,51,18.40
2015,06,27,09,52,18.20
2015,06,27,09,53,18.00
2015,06,27,09,54,17.90
2015,06,27,09,55,17.70
2015,06,27,09,56,17.60
2015,06,27,09,57,17.50
2015,06,27,09,58,17.30
2015,06,27,09,59,17.10
2015,06,27,10,00,17.00
2015,06,27,10,01,16.90
2015,06,27,10,02,16.80
2015,06,27,10,03,16.80
2015,06,27,10,04,16.70
2015,06,27,10,05,16.70
2015,06,27,10,06,16.60
2015,06,27,10,07,16.50
2015,06,27,10,08,16.50
2015,06,27,10,09,16.50
2015,06,27,10,10,16.60
2015,06,27,10,11,16.60
2015,06,27,10,12,16.60
2015,06,27,10,13,16.60
2015,06,27,10,14,16.70
2015,06,27,10,15,16.70
2015,06,27,10,16,16.70
2015,06,27,10,17,16.80
2015,06,27,10,18,16.90
2015,06,27,10,19,17.00
2015,06,27,10,20,17.10
2015,06,27,10,21,17.20
2015,06,27,10,22,17.30
2015,06,27,10,23,17.40
2015,06,27,10,24,17.50
2015,06,27,10,25,17.70
2015,06,27,10,26,17.80
2015,06,27,10,27,17.90
2015,06,27,10,28,18.00
2015,06,27,10,29,18.10
2015,06,27,10,30,18.20
2015,06,27,10,31,18.40
2015,06,27,10,32,18.50
2015,06,27,10,33,18.60
2015,06,27,10,34,18.80
2015,06,27,10,35,19.00
2015,06,27,10,36,19.20
2015,06,27,10,37,19.40
2015,06,27,10,38,19.50
2015,06,27,10,39,19.70
2015,06,27,10,40,19.90
2015,06,27,10,41,20.00
2015,06,27,10,42,20.20
2015,06,27,10,43,20.30
2015,06,27,10,44,20.40
2015,06,27,10,45,20.60
2015,06,27,10,46,20.80
2015,06,27,10,47,21.00
2015,06,27,10,48,21.20
2015,06,27,10,49,21.30
2015,06,27,10,50,21.50
2015,06,27,10,51,21.70
2015,06,27,10,52,21.80
2015,06,27,10,53,22.00
2015,06,27,10,54,22.10
2015,06,27,10,55,22.20
2015,06,27,10,56,22.30
2015,06,27,10,57,22.50
2015,06,27,10,58,22.60
2015,06,27,10,59,22.70
2015,06,27,11,00,22.70
2015,06,27,11,01,22.80
2015,06,27,11,02,22.80
2015,06,27,11,03,22.90
2015,06,27,11,04,23.00
2015,06,27,11,05,23.00
2015,06,27,11,06,23.10
2015,06,27,11,07,23.20
2015,06,27,11,08,23.30
2015,06,27,11,09,23.40
2015,06,27,11,10,23.40
2015,06,27,11,11,23.40
2015,06,27,11,12,23.40
2015,06,27,11,13,23.40
2015,06,27,11,14,23.40
2015,06,27,11,15,23.40
2015,06,27,11,16,23.40
2015,06,27,11,17,23.40
2015,06,27,11,18,23.40
2015,06,27,11,19,23.40
2015,06,27,11,20,23.30
2015,06,27,11,21,23.30
2015,06,27,11,22,23.30
2015,06,27,11,23,23.40
2015,06,27,11,24,23.40
2015,06,27,11,25,23.50
2015,06,27,11,26,23.60
2015,06,27,11,27,23.60
2015,06,27,11,28,23.70
2015,06,27,11,29,23.70
2015,06,27,11,30,23.80
2015,06,27,11,31,23.80
2015,06,27,11,32,23.90
2015,06,27,11,33,24.00
2015,06,27,11,34,24.00
2015,06,27,11,35,24.10
2015,06,27,11,36,24.10
2015,06,27,11,37,24.10
2015,06,27,11,38,24.10
2015,06,27,11,39,24.10
2015,06,27,11,40,24.10
2015,06,27,11,41,24.10
2015,06,27,11,42,24.20
2015,06,27,11,43,24.20
2015,06,27,11,44,24.30
2015,06,27,11,45,24.30
2015,06,27,11,46,24.40
2015,06,27,11,47,24.40
2015,06,27,11,48,24.40
2015,06,27,11,49,24.50
2015,06,27,11,50,24.50
2015,06,27,11,51,24.60
2015,06,27,11,52,24.60
2015,06,27,11,53,24.70
2015,06,27,11,54,24.70
2015,06,27,11,55,24.80
2015,06,27,11,56,24.90
2015,06,27,11,57,24.90
2015,06,27,11,58,25.00
2015,06,27,11,59,25.00
2015,06,27,12,00,25.00
2015,06,27,12,01,25.00
2015,06,27,12,02,25.00
2015,06,27,12,03,25.00
2015,06,27,12,04,24.90
2015,06,27,12,05,24.80
2015,06,27,12,06,24.80
2015,06,27,12,07,24.80
2015,06,27,12,08,24.80
2015,06,27,12,09,24.80
2015,06,27,12,10,24.90
2015,06,27,12,11,24.90
2015,06,27,12,12,24.90
2015,06,27,12,13,24.90
2015,06,27,12,14,24.90
2015,06,27,12,15,24.90
2015,06,27,12,16,24.90
2015,06,27,12,17,24.90
2015,06,27,12,18,25.00
2015,06,27,12,19,25.00
2015,06,27,12,20,25.00
2015,06,27,12,21,25.10
2015,06,27,12,22,25.00
2015,06,27,12,23,25.00
2015,06,27,12,24,25.00
2015,06,27,12,25,25.00
2015,06,27,12,26,25.00
2015,06,27,12,27,25.00
2015,06,27,12,28,24.90
2015,06,27,12,29,24.90
2015,06,27,12,30,24.80
2015,06,27,12,31,24.70
2015,06,27,12,32,24.60
2015,06,27,12,33,24.50
2015,06,27,12,34,24.40
2015,06,27,12,35,24.40
2015,06,27,12,36,24.40
2015,06,27,12,37,24.30
2015,06,27,12,38,24.30
2015,06,27,12,39,24.30
2015,06,27,12,40,24.20
2015,06,27,12,41,24.20
2015,06,27,12,42,24.20
2015,06,27,12,43,24.20
2015,06,27,12,44,24.20
2015,06,27,12,45,24.20
2015,06,27,12,46,24.10
2015,06,27,12,47,24.10
2015,06,27,12,48,24.00
2015,06,27,12,49,24.00
2015,06,27,12,50,24.00
2015,06,27,12,51,23.90
2015,06,27,12,52,23.80
2015,06,27,12,53,23.80
2015,06,27,12,54,23.80
2015,06,27,12,55,23.70
2015,06,27,12,56,23.70
2015,06,27,12,57,23.60
2015,06,27,12,58,23.60
2015,06,27,12,59,23.60
2015,06,27,13,00,23.60
2015,06,27,13,01,23.60
2015,06,27,13,02,23.60
2015,06,27,13,03,23.60
2015,06,27,13,04,23.60
2015,06,27,13,05,23.70
2015,06,27,13,06,23.70
2015,06,27,13,07,23.80
2015,06,27,13,08,23.80
2015,06,27,13,09,23.90
2015,06,27,13,10,23.90
2015,06,27,13,11,23.90
2015,06,27,13,12,24.00
2015,06,27,13,13,24.00
2015,06,27,13,14,24.00
2015,06,27,13,15,24.10
2015,06,27,13,16,24.10
2015,06,27,13,17,24.10
2015,06,27,13,18,24.10
2015,06,27,13,19,24.10
2015,06,27,13,20,24.10
2015,06,27,13,21,24.10
2015,06,27,13,22,24.20
2015,06,27,13,23,24.20
2015,06,27,13,24,24.20
2015,06,27,13,25,24.20
2015,06,27,13,26,24.20
2015,06,27,13,27,24.30
2015,06,27,13,28,24.30
2015,06,27,13,29,24.40
2015,06,27,13,30,24.50
2015,06,27,13,31,24.50
2015,06,27,13,32,24.60
2015,06,27,13,33,24.60
2015,06,27,13,34,24.60
2015,06,27,13,35,24.60
2015,06,27,13,36,24.60
2015,06,27,13,37,24.60
2015,06,27,13,38,24.60
2015,06,27,13,39,24.60
2015,06,27,13,40,24.70
2015,06,27,13,41,24.70
2015,06,27,13,42,24.80
2015,06,27,13,43,24.80
2015,06,27,13,44,24.80
2015,06,27,13,45,24.80
2015,06,27,13,46,24.80
2015,06,27,13,47,24.80
2015,06,27,13,48,24.90
2015,06,27,13,49,24.90
2015,06,27,13,50,24.90
2015,06,27,13,51,24.90
2015,06,27,13,52,24.90
2015,06,27,13,53,24.90
2015,06,27,13,54,24.80
2015,06,27,13,55,24.70
2015,06,27,13,56,24.50
2015,06,27,13,57,24.40
2015,06,27,13,58,24.40
2015,06,27,13,59,24.30
2015,06,27,14,00,24.30
2015,06,27,14,01,24.20
2015,06,27,14,02,24.10
2015,06,27,14,03,24.00
2015,06,27,14,04,23.90
2015,06,27,14,05,23.90
2015,06,27,14,06,23.90
2015,06,27,14,07,23.90
2015,06,27,14,08,23.90
2015,06,27,14,09,23.90
2015,06,27,14,10,23.90
2015,06,27,14,11,23.80
2015,06,27,14,12,23.70
2015,06,27,14,13,23.70
2015,06,27,14,14,23.60
2015,06,27,14,15,23.60
2015,06,27,14,16,23.70
2015,06,27,14,17,23.70
2015,06,27,14,18,23.80
2015,06,27,14,19,23.80
2015,06,27,14,20,23.80
2015,06,27,14,21,23.80
2015,06,27,14,22,23.70
2015,06,27,14,23,23.70
2015,06,27,14,24,23.70
2015,06,27,14,25,23.70
2015,06,27,14,26,23.80
2015,06,27,14,27,23.90
2015,06,27,14,28,24.00
2015,06,27,14,29,24.10
2015,06,27,14,30,24.20
2015,06,27,14,31,24.30
2015,06,27,14,32,24.40
2015,06,27,14,33,24.50
2015,06,27,14,34,24.70
2015,06,27,14,35,24.90
2015,06,27,14,36,25.00
2015,06,27,14,37,25.10
2015,06,27,14,38,25.30
2015,06,27,14,39,25.40
2015,06,27,14,40,25.40
2015,06,27,14,41,25.50
2015,06,27,14,42,25.50
2015,06,27,14,43,25.50
2015,06,27,14,44,25.60
2015,06,27,14,45,25.60
2015,06,27,14,46,25.70
2015,06,27,14,47,25.70
2015,06,27,14,48,25.80
2015,06,27,14,49,25.80
2015,06,27,14,50,25.90
2015,06,27,14,51,26.00
2015,06,27,14,52,26.10
2015,06,27,14,53,26.20
2015,06,27,14,54,26.20
2015,06,27,14,55,26.30
2015,06,27,14,56,26.50
2015,06,27,14,57,26.60
2015,06,27,14,58,26.60
2015,06,27,14,59,26.70
2015,06,27,15,00,26.60
2015,06,27,15,01,26.50
2015,06,27,15,02,26.40
2015,06,27,15,03,26.30
2015,06,27,15,04,26.30
2015,06,27,15,05,26.20
2015,06,27,15,06,26.10
2015,06,27,15,07,26.10
2015,06,27,15,08,26.10
2015,06,27,15,09,26.20
2015,06,27,15,10,26.30
2015,06,27,15,11,26.40
2015,06,27,15,12,26.50
2015,06,27,15,13,26.70
2015,06,27,15,14,26.80
2015,06,27,15,15,26.80
2015,06,27,15,16,26.90
2015,06,27,15,17,26.90
2015,06,27,15,18,27.00
2015,06,27,15,19,27.10
2015,06,27,15,20,27.30
2015,06,27,15,21,27.40
2015,06,27,15,22,27.50
2015,06,27,15,23,27.50
2015,06,27,15,24,27.50
2015,06,27,15,25,27.50
2015,06,27,15,26,27.40
2015,06,27,15,27,27.30
2015,06,27,15,28,27.20
2015,06,27,15,29,27.10
2015,06,27,15,30,26.90
2015,06,27,15,31,26.90
2015,06,27,15,32,26.80
2015,06,27,15,33,26.90
2015,06,27,15,34,26.90
2015,06,27,15,35,27.00
2015,06,27,15,36,27.10
2015,06,27,15,37,27.20
2015,06,27,15,38,27.30
2015,06,27,15,39,27.30
2015,06,27,15,40,27.30
2015,06,27,15,41,27.30
2015,06,27,15,42,27.30
2015,06,27,15,43,27.30
2015,06,27,15,44,27.20
2015,06,27,15,45,27.30
2015,06,27,15,46,27.30
2015,06,27,15,47,27.40
2015,06,27,15,48,27.50
2015,06,27,15,49,27.60
2015,06,27,15,50,27.70
2015,06,27,15,51,27.80
2015,06,27,15,52,27.90
2015,06,27,15,53,28.00
2015,06,27,15,54,28.20
2015,06,27,15,55,28.30
2015,06,27,15,56,28.30
2015,06,27,15,57,28.40
2015,06,27,15,58,28.40
2015,06,27,15,59,28.40
2015,06,27,16,00,28.40
2015,06,27,16,01,28.30
2015,06,27,16,02,28.30
2015,06,27,16,03,28.30
2015,06,27,16,04,28.30
2015,06,27,16,05,28.30
2015,06,27,16,06,28.30
2015,06,27,16,07,28.30
2015,06,27,16,08,28.30
2015,06,27,16,09,28.20
2015,06,27,16,10,28.20
2015,06,27,16,11,28.20
2015,06,27,16,12,28.20
2015,06,27,16,13,28.20
2015,06,27,16,14,28.20
2015,06,27,16,15,28.30
2015,06,27,16,16,28.30
2015,06,27,16,17,28.30
2015,06,27,16,18,28.30
2015,06,27,16,19,28.30
2015,06,27,16,20,28.30
2015,06,27,16,21,28.20
2015,06,27,16,22,28.10
2015,06,27,16,23,28.00
2015,06,27,16,24,27.90
2015,06,27,16,25,27.90
2015,06,27,16,26,27.80
2015,06,27,16,27,27.70
2015,06,27,16,28,27.70
2015,06,27,16,29,27.70
2015,06,27,16,30,27.70
2015,06,27,16,31,27.70
2015,06,27,16,32,27.70
2015,06,27,16,33,27.70
2015,06,27,16,34,27.60
2015,06,27,16,35,27.60
2015,06,27,16,36,27.50
2015,06,27,16,37,27.40
2015,06,27,16,38,27.40
2015,06,27,16,39,27.30
2015,06,27,16,40,27.40
2015,06,27,16,41,27.40
2015,06,27,16,42,27.50
2015,06,27,16,43,27.60
2015,06,27,16,44,27.60
2015,06,27,16,45,27.70
2015,06,27,16,46,27.70
2015,06,27,16,47,27.70
2015,06,27,16,48,27.70
2015,06,27,16,49,27.70
2015,06,27,16,50,27.70
2015,06,27,16,51,27.60
2015,06,27,16,52,27.60
2015,06,27,16,53,27.50
2015,06,27,16,54,27.20
2015,06,27,16,55,27.00
2015,06,27,16,56,26.80
2015,06,27,16,57,26.60
2015,06,27,16,58,26.50
2015,06,27,16,59,26.40
2015,06,27,17,00,26.30
2015,06,27,17,01,26.20
2015,06,27,17,02,26.10
2015,06,27,17,03,26.00
2015,06,27,17,04,25.90
2015,06,27,17,05,25.80
2015,06,27,17,06,25.70
2015,06,27,17,07,25.60
2015,06,27,17,08,25.60
2015,06,27,17,09,25.60
2015,06,27,17,10,25.60
2015,06,27,17,11,25.60
2015,06,27,17,12,25.70
2015,06,27,17,13,25.70
2015,06,27,17,14,25.70
2015,06,27,17,15,25.70
2015,06,27,17,16,25.70
2015,06,27,17,17,25.70
2015,06,27,17,18,25.70
2015,06,27,17,19,25.70